This is the latest recevied weather packets stored in our database for station/object K5YNC. If no packets are shown the sender has not sent any weather packets the latest 10 day(s).
| Time | Temp. | Humidity | Pressure | Rain* | Wind** | Luminosity | Snow |
|---|---|---|---|---|---|---|---|
| 1777930346 | 27.78° C | 57% | 1007.4 hPa | 0 mm | - | 485 W/m² | - |
| 1777930043 | 27.78° C | 57% | 1007.3 hPa | 0 mm | - | 518 W/m² | - |
| 1777929740 | 27.78° C | 56% | 1007.6 hPa | 0 mm | - | 544 W/m² | - |
| 1777929437 | 27.22° C | 57% | 1007.5 hPa | 0 mm | - | 545 W/m² | - |
| 1777929133 | 27.78° C | 57% | 1007.6 hPa | 0 mm | - | 560 W/m² | - |
| 1777928831 | 27.78° C | 57% | 1007.9 hPa | 0 mm | - | 561 W/m² | - |
| 1777928528 | 27.78° C | 57% | 1008 hPa | 0 mm | - | 618 W/m² | - |
| 1777928225 | 28.33° C | 56% | 1008 hPa | 0 mm | - | 602 W/m² | - |
| 1777927921 | 27.78° C | 57% | 1008.2 hPa | 0 mm | - | 644 W/m² | - |
| 1777927620 | 27.78° C | 56% | 1008.2 hPa | 0 mm | - | 681 W/m² | - |
| 1777927319 | 27.78° C | 57% | 1008.2 hPa | 0 mm | - | 652 W/m² | - |
| 1777927017 | 27.78° C | 56% | 1008.3 hPa | 0 mm | - | 669 W/m² | - |
| 1777926715 | 27.22° C | 57% | 1008.4 hPa | 0 mm | - | 700 W/m² | - |
| 1777926415 | 27.22° C | 56% | 1008.7 hPa | 0 mm | - | 718 W/m² | - |
| 1777926112 | 27.22° C | 57% | 1008.5 hPa | 0 mm | - | 560 W/m² | - |
| 1777925809 | 27.22° C | 57% | 1008.8 hPa | 0 mm | - | 718 W/m² | - |
| 1777925507 | 26.67° C | 57% | 1008.9 hPa | 0 mm | - | 714 W/m² | - |
| 1777925203 | 27.22° C | 57% | 1009 hPa | 0 mm | - | 657 W/m² | - |
| 1777924900 | 27.22° C | 58% | 1009 hPa | 0 mm | - | 649 W/m² | - |
| 1777924596 | 27.78° C | 56% | 1009.2 hPa | 0 mm | - | 699 W/m² | - |
| 1777924292 | 27.22° C | 58% | 1009.3 hPa | 0 mm | - | 746 W/m² | - |
| 1777923989 | 27.22° C | 56% | 1009.2 hPa | 0 mm | - | 751 W/m² | - |
| 1777923685 | 26.67° C | 57% | 1009.6 hPa | 0 mm | - | 806 W/m² | - |
| 1777923382 | 26.11° C | 57% | 1009.6 hPa | 0 mm | - | 661 W/m² | - |
| 1777923080 | 26.67° C | 57% | 1009.8 hPa | 0 mm | - | 581 W/m² | - |
* Rain latest hour (hover to see other rain measurements)
** Current wind speed in m/s (hover to see current wind gust speed)